FW1494 Weather Reports


time (UTC)temp
C
wind
direction
speed
KPH
gust
KPH
rain 1hr
cm
rain 24hr
cm
rain mn
cm
humidity
%
barometer
mb
20260509033933 17 273 14.5 24.1 0.00 0.23 0.10 94 1004.9
20260509033710 17 275 19.3 27.4 0.00 0.23 0.10 93 1004.9
20260509032929 17 302 17.7 27.4 0.00 0.23 0.10 93 1004.9
20260509032425 18 277 16.1 27.4 0.00 0.23 0.10 93 1005.1
20260509031919 18 307 12.9 20.9 0.00 0.23 0.10 93 1005.1
20260509031416 18 254 12.9 22.5 0.00 0.23 0.10 93 1005.2
20260509030910 18 284 14.5 22.5 0.00 0.23 0.10 93 1005.2
20260509030646 18 311 14.5 20.9 0.00 0.23 0.10 93 1005.2
20260509025907 18 279 16.1 20.9 0.00 0.23 0.10 92 1005.3
20260509025403 18 297 16.1 25.7 0.00 0.23 0.10 92 1005.2
20260509024905 18 300 16.1 25.7 0.00 0.23 0.10 92 1005.2
20260509024359 18 309 14.5 22.5 0.00 0.23 0.10 92 1005.2
20260509024131 18 309 17.7 22.5 0.00 0.23 0.10 91 1005.1
20260509023357 18 283 16.1 22.5 0.00 0.23 0.10 91 1005.1
20260509022850 18 284 17.7 22.5 0.00 0.23 0.10 91 1005.2
20260509022351 18 286 14.5 27.4 0.00 0.23 0.10 90 1005.1
20260509021846 18 314 17.7 27.4 0.00 0.23 0.10 88 1005.1
20260509021341 19 292 19.3 25.7 0.00 0.23 0.10 87 1005.0
20260509020841 20 274 16.1 22.5 0.00 0.23 0.10 88 1005.0
20260509020337 20 282 11.3 16.1 0.00 0.23 0.10 89 1005.0
20260509015839 19 282 8.0 19.3 0.00 0.23 0.10 90 1004.9
20260509015338 19 282 9.7 24.1 0.00 0.23 0.10 89 1005.0
20260509014837 19 234 16.1 24.1 0.00 0.23 0.10 89 1005.0
20260509014614 19 307 16.1 24.1 0.00 0.23 0.10 89 1005.2
20260509013837 19 286 17.7 24.1 0.00 0.23 0.10 89 1005.1
20260509013337 19 288 16.1 25.7 0.00 0.23 0.10 89 1005.1
20260509012841 18 296 17.7 25.7 0.00 0.23 0.10 90 1005.2
20260509012338 18 286 14.5 22.5 0.00 0.23 0.10 91 1005.2
20260509012108 18 254 17.7 22.5 0.00 0.23 0.10 89 1005.3
20260509011350 19 251 17.7 20.9 0.00 0.23 0.10 88 1005.5
20260509011345 19 249 14.5 20.9 0.00 0.23 0.10 89 1005.4
20260509010332 19 285 12.9 20.9 0.00 0.23 0.10 89 1005.5
20260509005832 19 291 17.7 25.7 0.00 0.23 0.10 89 1005.5
20260509005559 19 284 19.3 27.4 0.00 0.23 0.10 89 1005.6
20260509004823 19 286 14.5 27.4 0.00 0.23 0.10 90 1005.7
20260509004322 19 286 19.3 27.4 0.00 0.23 0.10 89 1005.8
20260509004049 19 283 20.9 30.6 0.00 0.23 0.10 89 1005.9
20260509003552 19 280 20.9 32.2 0.00 0.23 0.10 89 1006.0
20260509002814 19 284 17.7 32.2 0.00 0.23 0.10 89 1006.1
20260509002542 19 290 22.5 30.6 0.00 0.23 0.10 90 1006.1
20260509002039 18 292 17.7 27.4 0.00 0.23 0.10 91 1006.3
20260509001306 18 248 14.5 27.4 0.00 0.23 0.10 91 1006.4
20260509000806 18 269 20.9 27.4 0.00 0.23 0.10 90 1006.5
20260509000307 19 282 19.3 30.6 0.00 0.23 0.10 91 1006.6
20260509000027 18 281 19.3 30.6 0.00 0.23 0.10 92 1006.8
20260508235306 18 290 16.1 20.9 0.00 0.23 0.10 92 1006.8
20260508234758 18 284 16.1 25.7 0.00 0.23 0.10 93 1006.9
20260508234259 18 285 19.3 32.2 0.00 0.23 0.10 92 1007.0
20260508233758 18 268 24.1 32.2 0.00 0.23 0.10 92 1007.1
20260508233531 18 288 17.7 29.0 0.00 0.23 0.10 94 1007.1
20260508233025 18 248 17.7 29.0 0.00 0.23 0.10 93 1007.2
20260508232245 18 306 16.1 25.7 0.00 0.23 0.10 94 1007.2
20260508231740 18 325 16.1 27.4 0.00 0.23 0.10 94 1007.2
20260508231241 18 294 17.7 27.4 0.00 0.23 0.10 94 1007.4
20260508231010 18 286 16.1 22.5 0.00 0.23 0.10 94 1007.4
20260508230512 18 305 11.3 19.3 0.00 0.23 0.10 95 1007.5
20260508225735 18 260 12.9 27.4 0.00 0.23 0.10 94 1007.5
20260508225507 18 284 17.7 27.4 0.00 0.23 0.10 94 1007.5
20260508224732 18 287 11.3 22.5 0.00 0.23 0.10 95 1007.6
20260508224222 18 317 17.7 22.5 0.00 0.23 0.10 94 1007.5
20260508223718 18 284 16.1 24.1 0.00 0.23 0.10 95 1007.5
20260508223220 18 319 17.7 24.1 0.00 0.23 0.10 95 1007.6
20260508222714 17 304 16.1 20.9 0.00 0.23 0.10 95 1007.7
20260508222214 17 288 12.9 24.1 0.00 0.23 0.10 95 1007.7
20260508221948 17 307 11.3 24.1 0.00 0.23 0.10 95 1007.8
20260508221212 17 331 14.5 22.5 0.00 0.23 0.10 95 1007.9
20260508220706 17 296 14.5 22.5 0.00 0.23 0.10 95 1007.9
20260508220438 17 294 14.5 19.3 0.00 0.23 0.10 95 1007.9
20260508215659 17 286 12.9 19.3 0.00 0.23 0.10 95 1007.9
20260508215429 17 288 9.7 16.1 0.00 0.23 0.10 95 1008.0
20260508214652 17 294 9.7 16.1 0.00 0.23 0.10 95 1007.9
20260508214153 17 284 11.3 14.5 0.03 0.23 0.10 95 1007.9
20260508213638 17 290 11.3 17.7 0.03 0.23 0.10 95 1008.0
20260508213135 17 285 8.0 20.9 0.03 0.23 0.10 96 1007.9
20260508212629 17 284 11.3 20.9 0.03 0.23 0.10 96 1008.0
20260508212359 16 283 12.9 17.7 0.03 0.23 0.10 96 1007.9
20260508211626 16 284 12.9 16.1 0.03 0.23 0.10 97 1007.9
20260508211126 16 296 8.0 16.1 0.03 0.23 0.10 97 1008.0
20260508210630 16 307 9.7 17.7 0.03 0.23 0.10 98 1007.9
20260508210125 16 332 12.9 17.7 0.03 0.23 0.10 98 1008.0
20260508205621 16 288 11.3 17.7 0.03 0.23 0.10 98 1007.9
20260508205117 16 306 9.7 16.1 0.03 0.23 0.10 98 1007.9
20260508204615 16 297 11.3 16.1 0.00 0.20 0.10 98 1008.0
20260508204349 16 305 8.0 14.5 0.00 0.20 0.08 99 1008.0
20260508203846 16 301 6.4 14.5 0.00 0.20 0.08 99 1007.9
20260508203107 16 300 6.4 14.5 0.00 0.20 0.08 99 1008.0
20260508202608 15 315 8.0 14.5 0.00 0.20 0.08 99 1008.0
20260508202107 15 311 8.0 14.5 0.00 0.20 0.08 99 1007.9
20260508201602 15 335 8.0 12.9 0.00 0.20 0.08 99 1007.9
20260508201102 15 311 6.4 11.3 0.00 0.20 0.08 99 1007.8
20260508200604 15 296 4.8 9.7 0.00 0.20 0.08 99 1007.8
20260508200053 15 323 4.8 8.0 0.00 0.20 0.08 99 1007.8
20260508195549 15 306 4.8 8.0 0.00 0.20 0.08 99 1007.8
20260508195045 15 306 3.2 8.0 0.03 0.20 0.08 99 1007.7
20260508194547 15 294 3.2 4.8 0.03 0.20 0.08 99 1007.6
20260508194045 14 294 3.2 4.8 0.03 0.20 0.08 99 1007.6
20260508193540 14 294 3.2 3.2 0.03 0.20 0.08 99 1007.4
20260508193035 15 294 3.2 4.8 0.03 0.20 0.08 99 1007.4
20260508192534 15 294 3.2 4.8 0.03 0.20 0.08 99 1007.4
20260508192030 15 294 3.2 6.4 0.03 0.20 0.08 99 1007.5
20260508191529 15 294 3.2 14.5 0.03 0.20 0.08 99 1007.4
20260508191256 15 294 8.0 14.5 0.03 0.20 0.08 99 1007.4
20260508190522 15 321 8.0 22.5 0.03 0.20 0.08 99 1007.4
20260508190018 15 297 12.9 22.5 0.03 0.20 0.08 99 1007.3
20260508185518 15 321 8.0 16.1 0.03 0.20 0.08 99 1007.3
20260508185014 15 292 8.0 14.5 0.00 0.18 0.05 100 1007.3
20260508184515 15 304 6.4 8.0 0.00 0.18 0.05 99 1007.3
20260508184005 15 288 4.8 11.3 0.00 0.18 0.05 99 1007.2
20260508183505 15 288 4.8 14.5 0.00 0.18 0.05 99 1007.2
20260508183005 15 288 6.4 14.5 0.00 0.18 0.05 100 1007.2
20260508182501 15 288 6.4 11.3 0.00 0.18 0.05 100 1007.3
20260508182001 15 296 4.8 8.0 0.00 0.18 0.05 99 1007.2
20260508181502 15 296 6.4 8.0 0.00 0.18 0.05 99 1007.2
20260508180956 15 292 4.8 8.0 0.00 0.18 0.05 99 1007.2
20260508180458 15 292 4.8 8.0 0.00 0.18 0.05 99 1007.2
20260508175947 15 300 6.4 8.0 0.00 0.18 0.05 99 1007.1
20260508175437 15 288 3.2 8.0 0.00 0.18 0.05 99 1007.1
20260508175206 15 288 3.2 8.0 0.00 0.18 0.05 99 1007.1
20260508174447 15 288 4.8 14.5 0.00 0.18 0.05 99 1007.1
20260508174442 15 288 3.2 8.0 0.00 0.18 0.05 99 1007.1
20260508173425 15 310 6.4 14.5 0.00 0.18 0.05 99 1007.1
20260508172922 15 296 4.8 12.9 0.00 0.18 0.05 99 1007.0
20260508172417 15 293 6.4 12.9 0.00 0.18 0.05 99 1007.0
20260508172145 15 296 4.8 12.9 0.00 0.18 0.05 99 1007.1
20260508171406 15 288 8.0 12.9 0.00 0.18 0.05 100 1007.1
20260508171139 15 288 4.8 8.0 0.00 0.18 0.05 99 1007.1
20260508170407 15 288 4.8 8.0 0.00 0.18 0.05 100 1007.0
20260508165906 15 294 4.8 6.4 0.00 0.18 0.05 99 1007.0
20260508165402 15 294 3.2 6.4 0.00 0.18 0.05 99 1007.0
20260508164857 15 294 3.2 11.3 0.00 0.18 0.05 99 1007.0
20260508164354 15 301 4.8 14.5 0.00 0.18 0.05 99 1007.1
20260508163854 15 296 4.8 14.5 0.00 0.18 0.05 99 1007.0
20260508163349 15 287 8.0 16.1 0.00 0.18 0.05 99 1007.1
20260508162844 15 288 11.3 16.1 0.00 0.18 0.05 99 1007.1
20260508162340 15 285 8.0 12.9 0.00 0.18 0.05 99 1007.1
20260508161835 15 285 6.4 11.3 0.00 0.18 0.05 99 1007.3
20260508161331 15 285 6.4 12.9 0.00 0.18 0.05 99 1007.3
20260508160828 15 285 6.4 12.9 0.00 0.18 0.05 99 1007.3
20260508160323 15 314 4.8 11.3 0.00 0.18 0.05 100 1007.3
20260508155823 15 319 6.4 11.3 0.00 0.18 0.05 99 1007.3
20260508155322 15 313 4.8 9.7 0.00 0.18 0.05 99 1007.3
20260508154821 15 346 6.4 11.3 0.00 0.18 0.05 99 1007.3
20260508154317 15 319 6.4 12.9 0.00 0.18 0.05 99 1007.3
20260508153817 15 328 6.4 12.9 0.00 0.18 0.05 99 1007.3
20260508153313 15 316 6.4 14.5 0.00 0.18 0.05 99 1007.3
20260508153047 15 309 8.0 16.1 0.00 0.18 0.05 99 1007.4
20260508152546 15 302 9.7 17.7 0.00 0.18 0.05 99 1007.4
20260508151804 15 313 11.3 17.7 0.00 0.18 0.05 99 1007.5
20260508151303 15 280 12.9 17.7 0.00 0.18 0.05 99 1007.6
20260508150804 15 288 9.7 16.1 0.00 0.18 0.05 99 1007.6
20260508150538 15 296 9.7 16.1 0.00 0.18 0.05 99 1007.6
20260508145800 15 285 8.0 16.1 0.00 0.18 0.05 99 1007.7
20260508145256 15 305 11.3 19.3 0.00 0.18 0.05 99 1007.7
20260508145024 15 281 12.9 19.3 0.00 0.18 0.05 99 1007.7
20260508144246 15 288 6.4 11.3 0.00 0.18 0.05 99 1007.6
20260508143743 15 288 4.8 12.9 0.00 0.18 0.05 99 1007.5
20260508143226 15 288 6.4 12.9 0.00 0.18 0.05 99 1007.6
20260508142958 15 288 6.4 12.9 0.00 0.18 0.05 100 1007.7
20260508142220 15 295 8.0 16.1 0.00 0.18 0.05 100 1007.7
20260508141720 15 293 6.4 16.1 0.00 0.18 0.05 100 1007.6
20260508141216 15 298 8.0 12.9 0.00 0.18 0.05 100 1007.8
20260508140717 15 297 6.4 12.9 0.00 0.18 0.05 100 1007.9
20260508140212 15 294 8.0 12.9 0.00 0.18 0.05 100 1007.9
20260508135712 15 296 9.7 12.9 0.00 0.18 0.05 100 1007.9
20260508135213 15 288 6.4 11.3 0.00 0.18 0.05 100 1008.0
20260508134944 15 302 6.4 11.3 0.00 0.18 0.05 100 1008.0
20260508134208 15 305 6.4 9.7 0.00 0.18 0.05 100 1008.1
20260508133707 15 325 6.4 9.7 0.00 0.18 0.05 100 1008.2
20260508133159 15 308 6.4 11.3 0.00 0.18 0.05 100 1008.1
20260508132702 15 301 6.4 12.9 0.00 0.18 0.05 100 1008.1
20260508132154 15 298 8.0 12.9 0.03 0.18 0.05 100 1008.1
20260508131650 15 285 6.4 9.7 0.03 0.18 0.05 100 1008.2
20260508131421 15 285 4.8 9.7 0.05 0.18 0.05 100 1008.1
20260508130641 15 285 6.4 9.7 0.05 0.18 0.05 99 1008.1
20260508130142 15 285 4.8 11.3 0.05 0.18 0.05 99 1008.1
20260508125635 15 285 6.4 12.9 0.05 0.18 0.05 99 1008.1
20260508125135 15 285 9.7 12.9 0.05 0.18 0.05 99 1008.3
20260508124630 15 284 6.4 11.3 0.08 0.18 0.05 99 1008.3
20260508124126 15 284 8.0 11.3 0.08 0.18 0.05 99 1008.2
20260508123624 15 284 9.7 11.3 0.08 0.18 0.05 99 1008.3
20260508123120 15 284 8.0 14.5 0.08 0.18 0.05 99 1008.3
20260508122622 15 284 9.7 17.7 0.08 0.18 0.05 99 1008.5
20260508122120 15 288 14.5 22.5 0.05 0.15 0.05 99 1008.6
20260508121616 15 284 12.9 22.5 0.08 0.15 0.05 99 1008.7
20260508121118 15 266 12.9 22.5 0.08 0.15 0.03 99 1008.7
20260508120617 15 298 14.5 22.5 0.10 0.15 0.03 99 1008.8
20260508120111 15 253 14.5 22.5 0.10 0.13 0.00 98 1008.8
20260508115612 15 274 14.5 22.5 0.10 0.13 0.13 98 1008.8
20260508115112 15 282 12.9 22.5 0.10 0.13 0.13 98 1008.5
20260508114608 15 286 12.9 32.2 0.08 0.10 0.10 98 1009.0
20260508114108 15 270 22.5 32.2 0.08 0.10 0.10 98 1008.9
20260508113605 16 280 19.3 30.6 0.08 0.10 0.10 97 1008.7
20260508113338 16 276 24.1 33.8 0.08 0.10 0.10 97 1008.4
20260508112606 16 279 25.7 40.2 0.08 0.10 0.10 97 1008.5
20260508112113 18 293 16.1 25.7 0.05 0.08 0.08 97 1008.7
20260508112107 17 288 22.5 40.2 0.08 0.10 0.10 96 1008.5
20260508111101 18 325 6.4 17.7 0.05 0.05 0.05 98 1008.2
20260508110556 18 332 9.7 19.3 0.03 0.05 0.05 98 1008.3
20260508110057 18 10 12.9 19.3 0.00 0.03 0.03 97 1008.3
20260508105552 18 348 9.7 17.7 0.00 0.03 0.03 97 1008.4
20260508105048 18 15 14.5 17.7 0.00 0.03 0.03 97 1008.6
20260508104549 18 355 9.7 22.5 0.00 0.03 0.03 97 1008.7
20260508104046 18 355 16.1 22.5 0.00 0.03 0.03 97 1008.7
20260508103539 18 350 14.5 25.7 0.00 0.03 0.03 97 1008.8
20260508103308 18 0 19.3 25.7 0.00 0.03 0.03 97 1008.8
20260508102531 18 5 14.5 25.7 0.00 0.03 0.03 96 1008.7
20260508102034 18 5 17.7 25.7 0.00 0.03 0.03 96 1008.9
20260508101530 18 14 16.1 27.4 0.00 0.03 0.03 96 1008.8
20260508101027 18 12 14.5 27.4 0.00 0.03 0.03 96 1008.9
20260508100521 18 341 14.5 24.1 0.00 0.03 0.03 95 1008.9
20260508100021 18 0 16.1 24.1 0.00 0.03 0.03 95 1009.0
20260508095517 18 349 17.7 24.1 0.00 0.03 0.03 95 1008.9
20260508095018 18 24 17.7 25.7 0.00 0.03 0.03 95 1009.0
20260508094513 18 19 14.5 25.7 0.00 0.03 0.03 95 1009.1
20260508094009 18 9 11.3 19.3 0.00 0.03 0.03 95 1009.2
20260508093746 18 9 12.9 19.3 0.00 0.03 0.03 95 1009.3
20260508093005 18 0 12.9 17.7 0.00 0.03 0.03 95 1009.3
20260508092501 18 0 12.9 20.9 0.00 0.03 0.03 95 1009.4
20260508091957 18 341 14.5 20.9 0.00 0.03 0.03 95 1009.5
20260508091452 18 18 12.9 24.1 0.00 0.03 0.03 95 1009.6
20260508090948 18 355 17.7 27.4 0.00 0.03 0.03 95 1009.5
20260508090450 18 9 19.3 27.4 0.00 0.03 0.03 95 1009.4
20260508090223 18 32 17.7 25.7 0.00 0.03 0.03 95 1009.3
20260508085445 18 34 14.5 20.9 0.00 0.03 0.03 95 1009.8
20260508084944 18 5 12.9 22.5 0.00 0.03 0.03 95 1009.9
20260508084448 18 19 16.1 22.5 0.00 0.03 0.03 95 1009.8
20260508083945 18 5 12.9 22.5 0.00 0.03 0.03 95 1010.1
20260508083443 18 11 14.5 17.7 0.00 0.03 0.03 95 1009.9
20260508082938 18 12 11.3 19.3 0.00 0.03 0.03 95 1010.1
20260508082439 18 10 12.9 19.3 0.00 0.03 0.03 95 1010.1
20260508082209 18 352 12.9 24.1 0.00 0.03 0.03 95 1010.3
20260508081431 18 11 17.7 24.1 0.00 0.03 0.03 95 1010.2
20260508080932 18 9 12.9 24.1 0.00 0.03 0.03 95 1010.2
20260508080431 18 13 14.5 25.7 0.00 0.03 0.03 95 1010.3
20260508075929 18 5 19.3 25.7 0.00 0.03 0.03 96 1010.4
20260508075658 18 0 17.7 24.1 0.00 0.03 0.03 96 1010.4
20260508074918 17 17 14.5 22.5 0.00 0.03 0.03 96 1010.6
20260508074654 17 5 14.5 20.9 0.00 0.03 0.03 96 1010.6
20260508073917 17 15 14.5 20.9 0.00 0.03 0.03 96 1010.7
20260508073413 18 355 12.9 24.1 0.00 0.03 0.03 96 1010.9
20260508072913 18 0 14.5 24.1 0.00 0.03 0.03 96 1011.0
20260508072411 18 344 16.1 25.7 0.00 0.03 0.03 96 1011.1
20260508071905 18 350 16.1 25.7 0.00 0.03 0.03 95 1011.2
20260508071404 18 338 14.5 20.9 0.00 0.03 0.03 95 1010.9
20260508071137 18 331 12.9 24.1 0.00 0.03 0.03 95 1010.8
20260508070356 18 5 16.1 24.1 0.00 0.03 0.03 95 1010.8
20260508065856 18 0 14.5 29.0 0.00 0.03 0.03 95 1010.8
20260508065357 18 352 19.3 27.4 0.00 0.03 0.03 95 1010.7
20260508065353 18 0 20.9 29.0 0.00 0.03 0.03 95 1010.7
20260508064348 18 355 20.9 27.4 0.03 0.03 0.03 95 1010.7
20260508063843 18 355 20.9 27.4 0.03 0.03 0.03 95 1010.6
20260508063344 18 0 19.3 27.4 0.03 0.03 0.03 96 1010.4
20260508063115 18 355 17.7 27.4 0.03 0.03 0.03 96 1010.4
20260508062335 18 5 20.9 33.8 0.03 0.03 0.03 96 1010.5
20260508061835 18 14 20.9 33.8 0.03 0.03 0.03 96 1010.5
20260508061336 17 30 19.3 27.4 0.03 0.03 0.03 96 1010.5
20260508061113 18 27 17.7 25.7 0.03 0.03 0.03 96 1010.7
20260508060334 17 40 19.3 24.1 0.03 0.03 0.03 96 1010.8
20260508055830 17 30 16.1 22.5 0.03 0.03 0.03 96 1010.9
20260508055330 17 5 14.5 20.9 0.03 0.03 0.03 96 1010.8
20260508054826 17 16 17.7 25.7 0.03 0.03 0.03 96 1010.8
20260508054326 18 13 19.3 25.7 0.00 0.00 0.00 95 1010.9
20260508053822 18 44 16.1 27.4 0.00 0.00 0.00 95 1010.8
20260508053325 18 56 20.9 29.0 0.00 0.00 0.00 95 1010.8
20260508052823 18 16 22.5 32.2 0.00 0.00 0.00 95 1011.1
20260508052819 18 27 19.3 29.0 0.00 0.00 0.00 95 1011.0
20260508051812 18 24 20.9 32.2 0.00 0.00 0.00 94 1011.4
20260508051310 18 12 17.7 27.4 0.00 0.00 0.00 94 1011.4
20260508050811 18 14 17.7 27.4 0.00 0.00 0.00 94 1011.5
20260508050310 18 18 20.9 27.4 0.00 0.00 0.00 94 1011.5
20260508045811 18 30 16.1 25.7 0.00 0.00 0.00 94 1011.5
20260508045308 18 34 19.3 27.4 0.00 0.00 0.00 94 1011.7
20260508045042 18 27 19.3 27.4 0.00 0.00 0.00 94 1012.0
20260508044305 18 5 19.3 25.7 0.00 0.00 0.00 95 1011.9
20260508043804 18 16 19.3 29.0 0.00 0.00 0.00 95 1012.0
20260508043304 18 38 20.9 29.0 0.00 0.00 0.00 95 1012.0
20260508042806 18 5 17.7 32.2 0.00 0.00 0.00 95 1012.0
20260508042301 18 32 20.9 32.2 0.00 0.00 0.00 95 1012.1
20260508041801 18 13 24.1 32.2 0.00 0.00 0.00 95 1012.2
20260508041532 18 38 19.3 27.4 0.00 0.00 0.00 95 1012.2
20260508040757 18 32 17.7 25.7 0.00 0.00 0.00 95 1012.3
20260508040257 18 28 16.1 24.1 0.00 0.00 0.00 95 1012.4
20260508035756 18 23 17.7 24.1 0.00 0.00 0.00 95 1012.5
20260508035530 18 5 14.5 24.1 0.00 0.00 0.00 95 1012.7
20260508034757 18 11 14.5 22.5 0.00 0.00 0.00 95 1012.6